User: anonymous   Login
Location: Unspecified
(0.0000°N, 0.0000°E)
Time: 09:57:06
(UTC+00:00)
Language:

CANX 3A (UNIBRITE) - Orbit

View from above orbital plane
View from above orbital plane
View from above satellite
View from above satellite

Ground track
Ground track

The orbit data is extracted from the following two-line orbital elements,

1 39092U 13009G   17114.83078436 +.00000078 +00000-0 +42911-4 0  9995
2 39092 098.5562 319.8576 0010578 098.6150 261.6234 14.34898233217828
Epoch (UTC): 24 April 2017 19:56:19
Eccentricity: 0.0010578
inclination: 98.5562°
perigee height: 768 km
apogee height: 783 km
right ascension of ascending node: 319.8576°
argument of perigee: 98.6150°
revolutions per day: 14.34898233
mean anomaly at epoch: 261.6234°
orbit number at epoch: 21782

The dashed part of the orbit path shows where the satellite is in the earth's shadow,  

DLR